CASE2 Weather Reports


Display with metric or nautical units.
time (UTC)temp
F
wind
direction
speed
MPH
gust
MPH
rain 1hr
in
rain 24hr
in
rain mn
in
humidity
%
barometer
mb
20260506163007 54 360 3.0 10.0 0.00 0.00 0.00 41 1010.8
20260506161603 53 152 1.0 6.0 0.00 0.00 0.00 43 1010.8
20260506160055 53 71 0.0 0.0 0.00 0.00 0.00 61 1010.9
20260506154555 54 71 0.0 3.0 0.00 0.00 0.00 65 1010.9
20260506153052 54 342 0.0 4.0 0.00 0.00 0.00 63 1010.9
20260506151604 55 23 0.0 2.0 0.00 0.00 0.00 64 1010.9
20260506150050 56 360 0.0 3.0 0.00 0.00 0.00 64 1010.8
20260506144548 55 286 0.0 3.0 0.00 0.00 0.00 68 1010.8
20260506143053 53 313 0.0 5.0 0.00 0.00 0.00 70 1010.8
20260506141530 53 296 0.0 2.0 0.00 0.00 0.00 69 1010.7
20260506140035 54 267 0.0 3.0 0.00 0.00 0.00 70 1010.7
20260506134518 54 286 0.0 1.0 0.00 0.00 0.00 69 1010.6
20260506133021 54 360 0.0 4.0 0.00 0.00 0.00 70 1010.5
20260506131522 53 244 0.0 4.0 0.00 0.00 0.00 71 1010.4
20260506130017 54 17 0.0 4.0 0.00 0.00 0.00 69 1010.3
20260506124514 55 333 0.0 2.0 0.00 0.00 0.00 66 1010.3
20260506123016 56 339 0.0 3.0 0.00 0.00 0.00 63 1010.3
20260506121513 58 313 1.0 5.0 0.00 0.00 0.00 60 1010.2
20260506120010 57 355 0.0 4.0 0.00 0.00 0.00 62 1010.3
20260506114559 57 307 0.0 4.0 0.00 0.00 0.00 60 1010.4
20260506113106 56 40 0.0 4.0 0.00 0.00 0.00 62 1010.4
20260506111556 56 336 0.0 5.0 0.00 0.00 0.00 61 1010.4
20260506104608 54 355 0.0 3.0 0.00 0.00 0.00 63 1010.5
20260506103050 54 346 0.0 4.0 0.00 0.00 0.00 65 1010.5
20260506101554 54 299 1.0 4.0 0.00 0.00 0.00 63 1010.5
20260506100045 53 290 0.0 4.0 0.00 0.00 0.00 65 1010.5
20260506094527 52 313 0.0 3.0 0.00 0.00 0.00 64 1010.6
20260506093025 53 304 0.0 4.0 0.00 0.00 0.00 65 1010.5
20260506091517 53 360 0.0 3.0 0.00 0.00 0.00 63 1010.6
20260506090011 53 296 0.0 3.0 0.00 0.00 0.00 63 1010.6
20260506084515 51 317 0.0 3.0 0.00 0.00 0.00 61 1010.5
20260506083005 51 360 0.0 4.0 0.00 0.00 0.00 61 1010.5
20260506081506 50 30 0.0 4.0 0.00 0.00 0.00 62 1010.4
20260506073100 48 42 0.0 3.0 0.00 0.00 0.00 65 1010.5
20260506071541 48 30 1.0 4.0 0.00 0.00 0.00 62 1010.5
20260506061517 47 60 0.0 4.0 0.00 0.00 0.00 55 1010.8
20260506044506 45 53 0.0 3.0 0.00 0.00 0.00 58 1010.8
20260506043049 45 49 0.0 2.0 0.00 0.00 0.00 60 1010.9
20260506041559 45 47 0.0 3.0 0.00 0.00 0.00 61 1010.8
20260506040048 44 79 0.0 2.0 0.00 0.00 0.00 62 1010.7
20260506034546 44 53 0.0 2.0 0.00 0.00 0.00 62 1010.7
20260506033042 44 32 0.0 1.0 0.00 0.00 0.00 62 1010.7
20260506031541 45 360 0.0 1.0 0.00 0.00 0.00 61 1010.8
20260506030038 45 89 0.0 2.0 0.00 0.00 0.00 59 1010.9
20260506024540 45 26 0.0 5.0 0.00 0.00 0.00 58 1010.9
20260506023023 45 109 0.0 5.0 0.00 0.00 0.00 58 1011.0
20260506021523 46 82 0.0 4.0 0.00 0.00 0.00 57 1011.2
20260506020024 46 45 0.0 5.0 0.00 0.00 0.00 58 1011.3
20260506014529 46 347 0.0 5.0 0.00 0.00 0.00 59 1011.3
20260506013027 47 360 0.0 7.0 0.00 0.00 0.00 56 1011.3
20260506011521 47 360 0.0 6.0 0.00 0.00 0.00 55 1011.2
20260506010025 47 47 0.0 4.0 0.00 0.00 0.00 54 1011.1
20260506004533 47 23 0.0 6.0 0.00 0.00 0.00 53 1010.9
20260506003006 48 77 0.0 4.0 0.00 0.00 0.00 54 1010.9
20260506001506 48 66 1.0 5.0 0.00 0.00 0.00 56 1010.9
20260506000015 48 62 0.0 4.0 0.00 0.00 0.00 57 1010.8
20260505234512 48 346 0.0 5.0 0.00 0.00 0.00 60 1010.8
20260505233003 48 68 0.0 4.0 0.00 0.00 0.00 61 1010.9
20260505231503 47 360 0.0 4.0 0.00 0.00 0.00 65 1010.8
20260505230001 48 360 0.0 7.0 0.00 0.00 0.00 67 1010.9
20260505224501 48 360 0.0 4.0 0.00 0.00 0.00 70 1010.9
20260505223056 48 13 1.0 5.0 0.00 0.00 0.00 69 1010.9
20260505221553 48 331 0.0 3.0 0.00 0.00 0.00 71 1011.1
20260505220050 48 22 0.0 4.0 0.00 0.00 0.00 71 1011.1
20260505214559 47 360 0.0 5.0 0.00 0.00 0.00 71 1011.2
20260505213055 47 29 0.0 1.0 0.00 0.00 0.00 72 1011.2
20260505211546 47 88 0.0 3.0 0.00 0.00 0.00 73 1011.3
20260505210051 47 360 0.0 3.0 0.00 0.00 0.00 72 1011.3
20260505204545 47 360 0.0 2.0 0.00 0.00 0.00 74 1011.2
20260505203042 47 360 0.0 1.0 0.00 0.00 0.00 75 1011.3
20260505201546 47 360 0.0 3.0 0.00 0.00 0.00 74 1011.3
20260505200033 47 360 0.0 2.0 0.00 0.00 0.00 73 1011.2
20260505194534 47 346 0.0 2.0 0.00 0.00 0.00 73 1011.2
20260505193043 47 360 0.0 3.0 0.00 0.00 0.00 74 1011.2
20260505191541 47 30 0.0 0.0 0.00 0.00 0.00 73 1011.1
20260505190036 48 33 0.0 2.0 0.00 0.00 0.00 72 1011.2
20260505184530 48 360 0.0 4.0 0.00 0.00 0.00 71 1011.1
20260505183017 48 360 0.0 3.0 0.00 0.00 0.00 70 1011.0
20260505181517 49 11 0.0 1.0 0.00 0.00 0.00 68 1010.9
20260505180100 49 360 0.0 2.0 0.00 0.00 0.00 67 1010.9
20260505174600 50 292 0.0 4.0 0.00 0.00 0.00 62 1010.9
20260505173100 50 344 0.0 3.0 0.00 0.00 0.00 63 1011.0
20260505171559 50 331 0.0 3.0 0.00 0.00 0.00 62 1011.1
20260505170108 51 360 0.0 5.0 0.00 0.00 0.00 62 1011.1
20260505164557 51 305 0.0 4.0 0.00 0.00 0.00 59 1011.1